Regional Weather Roundup
Issued by NWS New Orleans/Baton Rouge, LA

Home | Current Version | Previous Version | Graphics & Text | Print | Product List | Glossary On
Versions: 1 2 3 4 5 6 7 8 9 10 11 12 13 14 15 16 17 18 19 20 21 22 23 24 25 26 27 28 29 30 31 32 33 34 35 36 37 38 39 40 41 42 43 44 45 46 47 48 49 50
458
ASUS44 KLIX 191601
RWRLIX
NEW ORLEANS REGIONAL WEATHER ROUNDUP
NATIONAL WEATHER SERVICE NEW ORLEANS LA
1100 AM CDT SAT APR 19 2014

NOTE: "FAIR" INDICATES FEW OR NO CLOUDS BELOW 12,000 FEET WITH NO
      SIGNIFICANT WEATHER AND/OR OBSTRUCTIONS TO VISIBILITY.
      SKY/WX - SKY CONDITION AND SIGNIFICANT WEATHER.
      TMP - AIR TEMPERATURE.     DP    - DEWPOINT TEMPERATURE.
      RH  - RELATIVE HUMIDITY.   PRES  - PRESSURE.
      HI  - HEAT INDEX.          WCI   - WIND CHILL INDEX.

*  THESE STATIONS ARE NOT NWS OR FAA STATIONS AND ARE NOT UNDER
   NWS QUALITY CONTROL.

LAZ038-040-048-061>063-065>067-069-191700-
SOUTHEAST LOUISIANA

CITY           SKY/WX    TMP DP  RH WIND       PRES   REMARKS
N.O. AUDUBON     N/A     73  52  47 MISG        N/A
N.O. INTL ARPT MOSUNNY   68  55  63 N8        30.18S
N.O. LAKEFRONT SUNNY     65  53  65 NE5       30.18S
N.O. DOWNTOWN*   N/A     66  48  52 N8        30.17F
SLIDELL        SUNNY     70  49  47 NE9       30.16S HAZE
BATON ROUGE    SUNNY     72  52  49 CALM      30.19F
BOOTHVILLE     SUNNY     63  55  75 N9        30.16S
BELLE CHASSE   MOSUNNY   70  50  49 N7        30.16F
BOGALUSA*        N/A     72  51  48 N9        30.18S
GALLIANO*      NOT AVBL
NEW ROADS*     NOT AVBL
GONZALES*      NOT AVBL
HAMMOND*       NOT AVBL
HOUMA*         SUNNY     70  54  56 NE7       30.17S
PORT FOURCHON* SUNNY     68  55  64 NE14      30.18S

$$

MSZ070-080>082-191700-
SOUTHERN MISSISSIPPI

CITY           SKY/WX    TMP DP  RH WIND       PRES   REMARKS
MCCOMB         SUNNY     70  47  43 N12       30.19R
GULFPORT       SUNNY     73  49  42 NE14G22   30.13F
BILOXI         SUNNY     69  50  49 NE12      30.13F
PASCAGOULA     SUNNY     68  50  52 NE16      30.13F

$$

COASTAL OBSERVATIONS
LAKE AND NEARSHORE STATIONS

STATION/POSITION TIME  TEMP    WIND        PRES    WAVE
                       AIR SEA DIR/SP/G            HT/PER
                 (UTC) (F)     (DEG/KT/KT) (MB)    (FT/S)
PASCAGOULA       1500   66      10/ 13/ 16 1019.8
WAVELAND YACHT   1500   65 66   10/ 14/ 17 1020.4
GRAND ISLE       1500   64 66  360/  6/  9 1022.2
SOUTHWEST PASS   1500   65 58  330/ 11/ 12 1021.6
NEW CANAL        1500   62 64   30/  5/  7 1022.1
SHELL BEACH      1500   61 61   10/  7/  8 1021.5

OFFSHORE STATIONS

STATION/POSITION TIME  TEMP    WIND        PRES    WAVE
                       AIR SEA DIR/SP/G            HT/PER
                 (UTC) (F)     (DEG/KT/KT) (MB)    (FT/S)
64 S DAUPHIN ISL 1507   62 71   10/ 17/ 21 1019.9

$$




USA.gov is the U.S. government's official web portal to all federal, state and local government web resources and services.